Flag for Madagascar Weather past 2 weeks in Antananarivo, Madagascar

79 °F

Scattered clouds.

Feels Like: 81 °F
Forecast: 65 / 82 °F
Wind: 6 mph from Southeast

Location: Antananarivo / Ivato

Current Time: Nov 29, 2015 at 5:09:19 PM

Latest Report: Nov 29, 2015 at 4:30 PM

Visibility: N/A

Pressure: 30.15 "Hg (26.03 "Hg at 1287m altitude)

Humidity: 70%

Dew point: 68 °F

Location of AntananarivoLocation

Historic Weather in Antananarivo — Graph


Antananarivo temperature yesterday

Maximum temperature yesterday: 86 °F (at 2:30 PM)
Minimum temperature yesterday: 63 °F (at 4:00 AM)
Average temperature yesterday: 72 °F

Past Weeks' High & Low Weather Summary

High91 °F (Nov 16, 1:00 PM)100% (Nov 15, 12:30 AM)30.27 "Hg (Nov 15, 12:30 AM)
Low55 °F (Nov 15, 5:30 AM)23% (Nov 16, 1:00 PM)29.95 "Hg (Nov 24, 2:00 PM)
Average72 °F82%30.11 "Hg
* Reported Nov 14 4:00 PM — Nov 29 4:00 PM, Antananarivo, Weather by CustomWeather, © 2015

Note: Actual official high and low records may vary slightly from our data, if they occured in-between our weather recording intervals... More about our weather records


Antananarivo weather history for previous 24 hours

Time TempWeatherWind HumidityBarometerVisibility
4:00 PM
Sun, Nov 29
81 °FThundershowers. Partly sunny.5 mph66%30.15 "HgN/A
3:30 PM84 °FThundershowers. Partly sunny.5 mph62%30.15 "HgN/A
3:00 PM86 °FScattered clouds.8 mph59%30.15 "HgN/A
2:30 PM84 °FScattered clouds.5 mph58%30.15 "HgN/A
2:00 PM84 °FPassing clouds.6 mph62%30.15 "HgN/A
1:30 PM84 °FPassing clouds.3 mph62%30.18 "HgN/A
1:00 PM82 °FPassing clouds.6 mph58%30.18 "HgN/A
12:30 PM82 °FPassing clouds.5 mph58%30.21 "HgN/A
12:00 PM81 °FPassing clouds.7 mph66%30.21 "HgN/A
11:30 AM81 °FPassing clouds.8 mph66%30.24 "HgN/A
11:00 AM77 °FPassing clouds.8 mph83%30.24 "HgN/A
9:30 AM73 °FBroken clouds.9 mph83%30.27 "HgN/A
8:00 AM70 °FBroken clouds.7 mph100%30.27 "HgN/A
7:30 AM68 °FPartly sunny.No wind100%30.27 "HgN/A
7:00 AM68 °FPartly sunny.No wind100%30.24 "HgN/A
6:30 AM66 °FPartly sunny.No wind100%30.24 "HgN/A
6:00 AM66 °FPartly sunny.No wind100%30.24 "HgN/A
5:30 AM64 °FPartly sunny.No wind100%30.21 "HgN/A
5:00 AM64 °FPassing clouds.No wind100%30.21 "HgN/A
4:30 AM64 °FPassing clouds.No wind100%30.21 "HgN/A
4:00 AM64 °FPassing clouds.No wind100%30.18 "HgN/A
3:30 AM64 °FPassing clouds.No wind100%30.18 "HgN/A
3:00 AM64 °FPassing clouds.No wind100%30.18 "HgN/A
2:30 AM64 °FPassing clouds.No wind100%30.18 "HgN/A
2:00 AM64 °FPassing clouds.No wind100%30.18 "HgN/A
1:00 AM66 °FPassing clouds.No wind100%30.21 "HgN/A
12:00 AM66 °FPassing clouds.No wind100%30.21 "HgN/A
11:30 PM
Sat, Nov 28
68 °FPassing clouds.No wind100%30.24 "HgN/A
11:00 PM66 °FPassing clouds.No wind100%30.24 "HgN/A
10:30 PM68 °FThunderstorms. Passing clouds.No wind100%30.24 "HgN/A
10:00 PM68 °FThunderstorms. Passing clouds.No wind100%30.24 "HgN/A
9:30 PM68 °FThunderstorms. Passing clouds.No wind100%30.24 "HgN/A
9:00 PM66 °FThunderstorms. Passing clouds.No wind100%30.24 "HgN/A
8:30 PM66 °FThunderstorms. Passing clouds.No wind100%30.21 "HgN/A
8:00 PM66 °FThunderstorms. Passing clouds.No wind100%30.21 "HgN/A
7:30 PM66 °FThunderstorms. Passing clouds.No wind100%30.21 "HgN/A
7:00 PM66 °FThunderstorms. Passing clouds.1 mph100%30.18 "HgN/A
6:30 PM66 °FThunderstorms. Passing clouds.6 mph100%30.18 "Hg4 mi
6:00 PM66 °FThunderstorms. Scattered clouds.6 mph100%30.18 "Hg4 mi
5:30 PM66 °FThunderstorms. Scattered clouds.8 mph100%30.15 "Hg5 mi
5:00 PM66 °FThunderstorms. Partly sunny.6 mph100%30.21 "Hg2 mi
Weather by CustomWeather, © 2015

See weather overviewHow to use our weather pages